Main page
METAR-TAF:

METAR-TAF

Airports :

Poplar Bluff Municipal Airport

Poplar Bluff, Missouri, United States

latitude: 36-46-14N, longitude: 090-19-20W, elevation: 328 ft

Current weather observation

The report was made 34 minutes ago, at 04:53 UTC
Calm wind
Temperature 73°F
Humidity 89%
Pressure 30.23 in. Hg
Visibility: 10 miles
Clear sky

METAR: KPOF 200453Z AUTO 00000KT 10SM CLR 23/21 A3023 RMK AO2 SLP231 T02280211

Time: 00:27 (05:27 UTC)


TAF: missing

Weather observations and forecasts of more than 4000 airports (METAR and TAF reports).

The available stations are represented by yellow and red dots on the map.

Hover mouse over dot to see the name of the station.

Then click to see weather observations and forecasts.

To change the map : click on the green buttons with a black cross to zoom in, on the green button with a dash to zoom out, or on the green arrows for adjacent maps.


METAR-TAF: